Regional Weather Roundup
Issued by NWS Newport/Morehead, NC

Home | Current Version | Previous Version | Text Only | Print | Product List | Glossary On
Versions: 1 2 3 4 5 6 7 8 9 10 11 12 13 14 15 16 17 18 19 20 21 22 23 24 25 26 27 28 29 30 31 32 33 34 35 36 37 38 39 40 41 42 43 44 45 46 47 48 49 50
000
ASUS42 KMHX 270125
RWRMHX
WEATHER ROUNDUP FOR EASTERN NORTH CAROLINA
NATIONAL WEATHER SERVICE NEWPORT/MOREHEAD CITY NC
900 PM EDT TUE JUL 26 2016

NOTE: "FAIR" INDICATES FEW OR NO CLOUDS BELOW 12,000 FEET
WITH NO SIGNIFICANT WEATHER AND/OR OBSTRUCTIONS TO VISIBILITY

NCZ015>017-031-032-045>047-102-103-270200-
NORTH COAST

CITY           SKY/WX    TMP DP  RH WIND       PRES   REMARKS
EDENTON        LGT RAIN  80  80 100 CALM      29.93F
ELIZABETH CITY CLOUDY    78  74  87 E3        29.93F
KITTY HAWK     CLOUDY    81  77  89 W3        29.93F
MANTEO           N/A     82  76  84 W8        29.95F

$$

NCZ045>047-081-094-103-104-270200-
CENTRAL COAST

CITY           SKY/WX    TMP DP  RH WIND       PRES   REMARKS
FRISCO         CLOUDY    83  76  79 SW13      29.96F

$$

NCZ095-097-098-100-101-270200-
SOUTHERN COAST

CITY           SKY/WX    TMP DP  RH WIND       PRES   REMARKS
BEAUFORT       CLEAR     83  78  85 SW10      29.98S
CEDAR ISLAND   NOT AVBL
JACKSONVILLE   CLEAR     82  74  76 S7        29.96F
PINEY ISLAND   NOT AVBL
WILMINGTON     CLEAR     83  75  77 S7        29.98S


$$

NCZ011>013-027>030-043-044-078>080-089-090>093-098-270200-
COASTAL PLAIN

CITY           SKY/WX    TMP DP  RH WIND       PRES   REMARKS
AHOSKIE        CLOUDY    76  75  98 SE3       29.94S
CLINTON        CLEAR     86  76  71 S3        29.96R
ELIZABETHTOWN  CLEAR     85  75  71 S6        29.96S
GOLDSBORO      CLEAR     89  75  64 S6        29.93S
GREENVILLE     CLOUDY    88  77  70 SW7       29.95S HX 100
HAVELOCK       CLEAR     83  74  74 S8        29.97F
KENANSVILLE    NOT AVBL
KINSTON        CLEAR     88  75  66 S9        29.95F
NEW BERN       PTCLDY    83  75  77 S7        29.97S
RICHLANDS      CLEAR     83  75  77 S7        29.97S
ROCKY MOUNT    CLOUDY    84  77  79 E5        29.94S
WASHINGTON     CLOUDY    87  78  74 S6        29.93F
WHITEVILLE     CLEAR     83  75  75 S3        29.97R

$$

AMZ130-135-150-152-154-156-158-170-250-252-270-ANZ085-086-088-633-658-670-270200-
MARINE OBSERVATIONS

STATION/POSITION TIME  TEMP    WIND        PRES    WAVE   SWELL
                       AIR SEA DIR/SP/G            HT/PER HT/PER
                 (UTC) (F)     (DEG/KT/KT) (MB)    (FT/S) (FT/S)
CHESAPEAKE LIGHT NOT AVBL
64 E VA BEACH    0050   81 81   CALM  /  2 1013.7    3/ 6   3/ 6
DUCK             0000      68                N/A
2 E DUCK         0011      72                N/A     1/ 8
OREGON INLET     0000      85                N/A
13E OREGON INLT  0100      82                N/A     3/ 6   2/ 6
HATTERAS CG      0000      83                N/A
DIAMOND BUOY     0050   85 85  230/ 17/ 21 1014.8    5/ 5
CAPE LOOKOUT     0100   83     220/ 11/ 15 1015.1
BEAUFORT LAB     0000      84                N/A
30 SE NEW RVR IN 0108   84 85  230/ 16/ 19 1015.5
30 SE NEW RVR IN 0025      85                N/A     4/ 5
27 SE WRIGHTSVLE 0108   84 84  230/ 14/ 17 1015.8
5 SE WRIGHTSVLE  0108   82 80  220/ 10/ 14 1016.2
225 S CAPE HAT   0050   84 85  230/ 10/ 12 1017.5    2/ 8   2/ 8
41 SE CHARLESTON 0050   85 86  210/ 16/ 17 1015.5    3/ 4   2/ 8

$$



USA.gov is the U.S. government's official web portal to all federal, state and local government web resources and services.